TimeEDT,TemperatureF,Dew PointF,Humidity,Sea Level PressureIn,VisibilityMPH,Wind Direction,Wind SpeedMPH,Gust SpeedMPH,PrecipitationIn,Events,Conditions,WindDirDegrees,DateUTC
12:15 AM,57.4,54.5,90,29.91,10.0,SE,3.5,-,N/A,,Mostly Cloudy,130,2013-05-07 04:15:00
12:35 AM,58.1,54.7,88,29.91,10.0,Calm,Calm,-,N/A,,Overcast,0,2013-05-07 04:35:00
12:55 AM,58.1,54.5,88,29.90,10.0,SE,3.5,-,N/A,,Overcast,140,2013-05-07 04:55:00
1:15 AM,57.6,54.7,90,29.91,10.0,SSE,3.5,-,N/A,,Mostly Cloudy,160,2013-05-07 05:15:00
1:35 AM,57.6,54.7,90,29.90,10.0,Calm,Calm,-,N/A,,Mostly Cloudy,0,2013-05-07 05:35:00
1:55 AM,57.6,54.9,91,29.90,10.0,Calm,Calm,-,N/A,,Mostly Cloudy,0,2013-05-07 05:55:00
2:15 AM,57.4,55.4,93,29.89,10.0,Calm,Calm,-,N/A,,Mostly Cloudy,0,2013-05-07 06:15:00
2:35 AM,56.8,55.0,94,29.89,10.0,South,3.5,-,N/A,,Mostly Cloudy,190,2013-05-07 06:35:00
2:55 AM,56.7,54.9,94,29.88,10.0,SSW,3.5,-,N/A,,Scattered Clouds,210,2013-05-07 06:55:00
3:15 AM,56.3,54.5,94,29.88,10.0,Calm,Calm,-,N/A,,Clear,0,2013-05-07 07:15:00
3:35 AM,56.3,54.1,92,29.88,10.0,WSW,3.5,-,N/A,,Clear,250,2013-05-07 07:35:00
3:55 AM,56.3,53.6,91,29.88,10.0,WSW,4.6,-,N/A,,Clear,250,2013-05-07 07:55:00
4:35 AM,55.6,52.7,90,29.88,10.0,West,4.6,-,N/A,,Clear,260,2013-05-07 08:35:00
4:55 AM,55.6,51.8,87,29.88,10.0,WSW,3.5,-,N/A,,Clear,250,2013-05-07 08:55:00
5:15 AM,54.9,51.4,88,29.88,10.0,West,3.5,-,N/A,,Clear,260,2013-05-07 09:15:00
5:35 AM,54.9,50.9,86,29.88,10.0,West,3.5,-,N/A,,Clear,260,2013-05-07 09:35:00
5:55 AM,54.5,50.5,86,29.88,10.0,Calm,Calm,-,N/A,,Clear,0,2013-05-07 09:55:00
6:15 AM,54.1,50.9,89,29.88,10.0,Calm,Calm,-,N/A,,Clear,0,2013-05-07 10:15:00
6:35 AM,54.0,51.1,90,29.89,10.0,Calm,Calm,-,N/A,,Clear,0,2013-05-07 10:35:00
6:55 AM,53.8,51.3,91,29.90,10.0,Calm,Calm,-,N/A,,Clear,0,2013-05-07 10:55:00
7:15 AM,54.0,51.1,90,29.91,10.0,Calm,Calm,-,N/A,,Clear,0,2013-05-07 11:15:00
7:35 AM,54.5,51.1,88,29.91,10.0,Calm,Calm,-,N/A,,Clear,0,2013-05-07 11:35:00
7:55 AM,54.7,51.3,88,29.91,10.0,Calm,Calm,-,N/A,,Scattered Clouds,0,2013-05-07 11:55:00
8:15 AM,55.6,51.8,87,29.91,10.0,Calm,Calm,-,N/A,,Mostly Cloudy,0,2013-05-07 12:15:00
8:35 AM,55.8,51.8,87,29.92,10.0,SW,3.5,-,N/A,Rain,Light Rain,220,2013-05-07 12:35:00
8:55 AM,55.6,52.0,88,29.93,10.0,Calm,Calm,-,N/A,,Mostly Cloudy,0,2013-05-07 12:55:00
9:15 AM,56.3,52.0,85,29.94,10.0,SW,3.5,-,N/A,,Mostly Cloudy,230,2013-05-07 13:15:00
9:35 AM,57.2,51.4,81,29.94,10.0,WSW,3.5,-,N/A,,Overcast,240,2013-05-07 13:35:00
9:55 AM,58.5,51.3,77,29.95,10.0,WSW,5.8,-,N/A,,Mostly Cloudy,250,2013-05-07 13:55:00
10:15 AM,60.3,51.1,72,29.95,10.0,WSW,4.6,-,N/A,,Overcast,240,2013-05-07 14:15:00
10:35 AM,61.7,50.0,65,29.95,10.0,SSW,6.9,-,N/A,,Scattered Clouds,210,2013-05-07 14:35:00
10:55 AM,64.4,49.3,58,29.95,10.0,WSW,6.9,-,N/A,,Clear,240,2013-05-07 14:55:00
11:15 AM,66.9,46.2,47,29.95,10.0,SSW,9.2,-,N/A,,Clear,210,2013-05-07 15:15:00
11:35 AM,66.2,47.3,51,29.95,10.0,SW,6.9,-,N/A,,Clear,220,2013-05-07 15:35:00
11:55 AM,66.9,47.3,49,29.95,10.0,SSW,4.6,-,N/A,,Clear,210,2013-05-07 15:55:00
12:15 PM,68.0,47.3,47,29.95,10.0,SSW,6.9,-,N/A,,Scattered Clouds,210,2013-05-07 16:15:00
12:35 PM,69.3,46.8,45,29.95,10.0,SSW,10.4,16.1,N/A,,Scattered Clouds,200,2013-05-07 16:35:00
12:55 PM,68.0,44.8,43,29.96,10.0,SW,9.2,-,N/A,,Mostly Cloudy,230,2013-05-07 16:55:00
1:15 PM,67.5,47.8,49,29.96,10.0,SW,9.2,-,N/A,,Mostly Cloudy,220,2013-05-07 17:15:00
1:35 PM,67.1,50.0,54,29.96,10.0,WSW,11.5,16.1,N/A,,Overcast,240,2013-05-07 17:35:00
2:15 PM,68.0,46.0,45,29.93,10.0,SW,8.1,-,N/A,,Mostly Cloudy,230,2013-05-07 18:15:00
2:35 PM,68.7,46.4,45,29.92,10.0,South,8.1,-,N/A,,Clear,190,2013-05-07 18:35:00
2:55 PM,70.3,43.3,38,29.91,10.0,South,9.2,-,N/A,,Clear,170,2013-05-07 18:55:00
3:15 PM,69.8,45.1,41,29.91,10.0,South,8.1,-,N/A,,Clear,190,2013-05-07 19:15:00
3:35 PM,70.2,45.0,40,29.91,10.0,SW,8.1,-,N/A,,Clear,230,2013-05-07 19:35:00
3:55 PM,70.2,46.6,43,29.91,10.0,SSW,5.8,-,N/A,,Mostly Cloudy,210,2013-05-07 19:55:00
4:15 PM,69.8,46.8,44,29.90,10.0,West,6.9,17.3,N/A,,Overcast,260,2013-05-07 20:15:00
4:35 PM,69.3,48.0,47,29.90,10.0,SW,5.8,-,N/A,,Overcast,220,2013-05-07 20:35:00
4:55 PM,64.6,53.2,67,29.92,5.0,SW,12.7,18.4,0.01,Rain,Rain,220,2013-05-07 20:55:00
5:15 PM,60.1,55.4,85,29.92,10.0,West,8.1,-,0.02,Rain,Rain,280,2013-05-07 21:15:00
5:35 PM,60.1,57.2,90,29.92,10.0,West,6.9,-,0.02,,Overcast,270,2013-05-07 21:35:00
5:55 PM,61.2,57.4,87,29.91,10.0,WNW,3.5,-,0.02,,Mostly Cloudy,290,2013-05-07 21:55:00
6:15 PM,63.9,55.8,75,29.91,10.0,West,3.5,-,N/A,,Scattered Clouds,260,2013-05-07 22:15:00
6:35 PM,64.9,55.6,72,29.91,10.0,West,3.5,-,N/A,,Scattered Clouds,260,2013-05-07 22:35:00
6:55 PM,66.2,54.3,65,29.91,10.0,WSW,3.5,-,N/A,,Clear,250,2013-05-07 22:55:00
7:15 PM,66.7,54.5,65,29.91,10.0,West,5.8,-,N/A,,Clear,280,2013-05-07 23:15:00
7:35 PM,66.2,55.4,68,29.91,10.0,West,3.5,-,N/A,,Clear,270,2013-05-07 23:35:00
7:55 PM,65.3,55.4,70,29.91,10.0,Calm,Calm,-,N/A,,Clear,0,2013-05-07 23:55:00
8:15 PM,64.2,55.4,73,29.92,10.0,Calm,Calm,-,N/A,,Clear,0,2013-05-08 00:15:00
8:35 PM,61.0,55.9,83,29.93,10.0,Calm,Calm,-,N/A,,Clear,0,2013-05-08 00:35:00
8:55 PM,59.2,56.3,90,29.93,10.0,Calm,Calm,-,N/A,,Clear,0,2013-05-08 00:55:00
9:15 PM,59.0,56.3,91,29.94,10.0,Calm,Calm,-,N/A,,Clear,0,2013-05-08 01:15:00
9:35 PM,58.6,56.5,93,29.95,10.0,SSE,4.6,-,N/A,,Clear,150,2013-05-08 01:35:00
9:55 PM,59.0,55.8,89,29.95,10.0,Calm,Calm,-,N/A,,Clear,0,2013-05-08 01:55:00
10:15 PM,58.5,55.6,90,29.96,10.0,Calm,Calm,-,N/A,,Clear,0,2013-05-08 02:15:00
10:35 PM,59.0,55.6,88,29.96,10.0,South,3.5,-,N/A,,Clear,170,2013-05-08 02:35:00
10:55 PM,58.5,54.9,88,29.97,10.0,South,3.5,-,N/A,,Clear,170,2013-05-08 02:55:00
11:15 PM,57.2,54.5,91,29.97,10.0,SE,3.5,-,N/A,,Clear,140,2013-05-08 03:15:00
11:35 PM,56.5,54.1,92,29.97,10.0,Calm,Calm,-,N/A,,Clear,0,2013-05-08 03:35:00
11:55 PM,56.5,54.5,93,29.97,10.0,Calm,Calm,-,N/A,,Clear,0,2013-05-08 03:55:00